Back to catalog

OPTUS C1

AliveCommunicationsGEO
NORAD 27831·PAYLOAD·🇦🇺 Australia

Launched Jun 11, 2003 from Guiana Space Centre

Loading…

TLE

FreshSource: Space-Track

Epoch: Sep 14, 2026, 15:06 UTC

1 27831U 03028B   26257.62975292 -.00000157  00000-0  00000-0 0  9992
2 27831   7.1080  68.2887 0005438 101.8473 205.9386  1.00273072 53959

Track OPTUS C1 in real time with AllMySat

Download on the App Store